www.pogodaiklimat.ru

Погода и климат >> Архив погоды >> Россия >> Якутия >> Токо


ПОГОДА в Токо

  • Прогноз погоды в Токо
  • Монитор погоды в Токо
  • Климат города

АРХИВ ПОГОДЫ в Токо

Время (UTC), дата Ветер
(напр.,м/с)
 
Видим.   Явления Облачность Т
(С)
Тd
(С)
f
(%)
Тe
(С)
Тes
(С)
Комфортность P
(гПа)
Po
(гПа)
Тmin
(С)
Tmax
(С)
R
(мм)
R24
(мм)
S
(см)
12 14.10 С 1 50 км 10/10 600 м
[Cb cap]
-3.6 -7.6 74 -6 -6 1027.7 923.9 -0.8 0.4
15 14.10 СВ 1 50 км 10/10 600 м
[Cb cap]
-5.0 -8.6 76 -7 -7 1029.2 924.6
18 14.10 штиль 0 50 км 10/10 600 м
[Cb cap]
-5.5 -8.9 77 -6 -6 1029.6 924.8
21 14.10 СВ 1 50 км 10/10 600 м
[Cb cap]
-5.3 -9.0 75 -7 -7 1029.9 925.2
00 15.10 штиль 0 10 км слабый ливневой снег 10/10 600 м
[Cb cap]
-4.5 -8.0 77 -5 -5 1030.6 926.1 -5.5 1 7
03 15.10 В 1 50 км {ливн. осадки} 10/10 600 м
[Cb cap]
-3.6 -8.8 67 -6 -6 1030.0 925.9
06 15.10 штиль 0 50 км {ливн. осадки} 10/10 600 м
[Cb cap]
-3.3 -8.4 68 -4 -4 1029.3 925.4
09 15.10 СВ 1 50 км 10/10 600 м
[Cb cap]
-4.3 -8.5 72 -6 -6 1030.3 925.9
12 15.10 С 1 50 км 10/10 600 м
[Cb cap]
-4.9 -8.5 76 -7 -7 1031.0 926.4 -5.5 0.4
15 15.10 СЗ 1 50 км 10/10 600 м
[Cb cap]
-5.4 -8.3 80 -8 -8 1030.8 926.0
18 15.10 С 1 50 км 10/10 600 м
[Cb cap]
-6.1 -9.2 79 -8 -8 1030.2 925.2
21 15.10 штиль 0 50 км 10/10 600 м
[Cb cap]
-6.8 -9.7 80 -8 -8 1030.1 924.8
00 16.10 С 1 50 км 10/10 600 м
[Cb cap]
-6.3 -9.0 81 -9 -9 1029.7 924.6 -6.8 7
03 16.10 С 1 50 км слабый град 9/9 600 м
[]
-4.7 -8.7 74 -7 -6 1028.4 924.1
06 16.10 С 1 50 км 4/0
[Ac As Ci fib]
-1.4 -7.4 64 -3 -2 1025.1 922.4
09 16.10 СЗ 1 50 км 10/0
[As op]
-2.1 -8.3 62 -4 -4 1025.3 922.2
12 16.10 штиль 0 50 км 10/0
[As op]
-4.8 -9.2 71 -6 -6 1025.3 921.3 -1.4
15 16.10 ЮЗ 1 50 км 10/0
[As op]
-5.0 -8.2 78 -7 -7 1024.7 920.6
18 16.10 штиль 0 50 км 10/0
[As op]
-5.5 -8.1 82 -6 -6 1024.5 920.3
21 16.10 ЮЗ 1 50 км 4/0
[Ac trans]
-10.5 -11.1 95 -13 -13 1025.4 919.2
00 17.10 штиль 0 50 км 6/4 1000 м
[Sc Ac trans]
-7.5 -8.4 93 -8 -8 1024.6 919.6 -10.5 7
03 17.10 штиль 0 50 км 6/3 1000 м
[Sc Ci]
+2.0 -5.7 57 +2 +4 1020.7 919.3
06 17.10 штиль 0 50 км 4/0
[Ci fib]
+2.8 -6.0 52 +2 +4 1018.8 918.2
09 17.10 штиль 0 50 км 3/0
[Ci fib]
-0.4 -8.3 55 -1 -1 1020.7 918.6
12 17.10 СЗ 1 50 км ясно -8.5 -11.7 78 -11 -11 1024.1 918.7 +2.8
15 17.10 штиль 0 50 км ясно -14.2 -14.8 95 -14 -14 1022.5 917.8
18 17.10 штиль 0 50 км ясно -16.7 -17.3 95 -17 -17 1025.7 917.2
21 17.10 штиль 0 50 км 10/10 1000 м
[Sc]
-9.2 -11.4 84 -10 -10 1021.3 916.0
00 18.10 штиль 0 50 км {снег} 9/9 1000 м
[Sc]
-6.9 -7.8 93 -8 -8 1019.9 915.6 -16.7 0.5 7
03 18.10 штиль 0 50 км 10/10 600 м
[Cb cap]
-3.5 -5.6 85 -5 -5 1017.7 915.0
06 18.10 СЗ 1 20 км слабый ливневой снег 10/10 600 м
[Cb cap]
+0.6 -1.4 86 -1 -1 1015.1 914.2
09 18.10 В 1 20 км слабый ливневой снег 10/10 600 м
[Cb cap]
+0.3 -1.2 90 -2 -2 1016.0 914.8
12 18.10 В 1 50 км {ливн. осадки} 10/10 600 м
[Cb cap]
-2.8 -3.2 97 -5 -5 1018.5 916.0 +0.6 0.6
15 18.10 СВ 1 50 км 10/10 600 м
[Cb cap]
-3.1 -5.1 86 -5 -5 1019.7 916.9
18 18.10 штиль 0 10 км слабый ливневой снег 10/10 600 м
[]
-4.3 -6.6 84 -5 -5 1020.0 916.7
21 18.10 штиль 0 50 км {ливн. осадки} 10/10 600 м
[Cb cap]
-6.3 -7.5 91 -7 -7 1021.2 917.0
00 19.10 штиль 0 50 км {ливн. осадки} 10/10 600 м
[Cb cap]
-4.9 -7.0 85 -6 -6 1022.5 918.7 -6.3 0.5 8
03 19.10 СЗ 1 50 км 8/6 1000 м
[Sc Ci fib]
-2.2 -8.1 64 -4 -3 1019.7 917.1
06 19.10 СЗ 1 50 км 8/6 1000 м
[Sc Ci fib]
-0.2 -8.0 56 -2 -1 1017.6 916.0
09 19.10 штиль 0 50 км 6/3 1000 м
[Sc Ci fib]
-5.7 -10.0 72 -6 -6 1019.4 915.6
12 19.10 ЮЗ 1 50 км 4/4 1000 м
[Sc]
-11.1 -13.1 85 -13 -13 1021.8 915.7 -0.2
15 19.10 штиль 0 50 км 8/8 1000 м
[Sc]
-9.4 -10.6 91 -10 -10 1020.3 915.1
18 19.10 штиль 0 50 км 5/5 1000 м
[Sc]
-10.0 -10.6 95 -10 -10 1019.7 914.4
21 19.10 штиль 0 50 км 4/4 1000 м
[Sc]
-14.1 -14.7 95 -14 -14 1022.8 915.5
00 20.10 ЮВ 1 50 км 6/3 1000 м
[Sc Ci fib]
-3.4 -5.5 85 -6 -5 1019.6 916.7 -14.1 6
03 20.10 СЗ 1 50 км 8/8 1000 м
[Sc]
-1.8 -7.9 63 -4 -3 1019.6 917.3
06 20.10 СЗ 1 50 км 8/8 600 м
[Cb cap]
+0.3 -6.8 59 -1 -1 1019.1 917.5
09 20.10 СЗ 1 50 км 10/10 600 м
[Cb cap]
-1.9 -8.1 63 -4 -4 1021.4 918.8
12 20.10 СЗ 3 50 км 10/10 600 м
[Cb cap]
-2.5 -8.1 65 -7 -7 1022.6 919.6 +0.3
15 20.10 СЗ 2 50 км 10/10 600 м
[Cb cap]
-4.0 -9.4 66 -8 -8 1023.5 919.9
18 20.10 СЗ 1 50 км 10/10 600 м
[Cb cap]
-4.6 -8.9 72 -7 -7 1024.0 920.1
21 20.10 штиль 0 50 км ясно -17.2 -17.8 95 -17 -17 1029.1 919.9
00 21.10 штиль 0 50 км 6/0
[Ci fib]
-12.7 -11.2 100 -13 -12 1027.6 920.3 -17.2 5
03 21.10 штиль 0 50 км 6/0
[Ci fib]
-1.8 -7.9 63 -2 +1 1021.9 919.3
06 21.10 штиль 0 50 км 8/8 1000 м
[Sc]
-0.2 -8.4 54 -1 -0 1020.0 918.2
09 21.10 штиль 0 50 км 10/10 1000 м
[Sc]
-1.4 -7.4 64 -2 -2 1020.1 917.8

 

Местоположение метеостанции Токо (Якутия, Россия): широта 56.28 долгота 131.10 высота над уровнем моря 850 м.

В архиве по умолчанию представлена погода в Токо за последнюю неделю. Архивные данные за месяц целиком и за предыдущие месяцы, начиная с января 2011 года, Вы можете получить, выбрав интересующий диапазон дат из раскрывающегося списка и нажав кнопку "Ввод!".


*Определитесь, кто Вы:
робот инопланетянин человек

Внимание! Время в таблицах - всемирное. Для получения местного времени необходимо прибавить поправку, которая в Токо равна 10 ч.

Смотрите также архив погоды в соседних городах и на ближайших метеорологических станциях:

Погода в Чюльбю (Якутия, Россия) (166 км)
Погода в Локшаке (Амурская область, Россия) (178 км)
Погода в Бомнаке (Амурская область, Россия) (226 км)
Погода в Джане (Хабаровский край, Россия) (238 км)
Погода в Учуре (Якутия, Россия) (274 км)
Погода в Удском (Хабаровский край, Россия) (287 км)
Погода в Угино (Якутия, Россия) (304 км)
Погода в Береговом (Амурская область, Россия) (315 км)
Погода в Чумикане (Хабаровский край, Россия) (316 км)
Погода в Дугде (Амурская область, Россия) (333 км)

Пояснения к столбцам:

Ветер - указаны скорость ветра в м/с - средняя за 10 мин, порывы в срок и между сроками (в фигурных скобках) и направление, откуда дует ветер: С - северный, СВ - северо-восточный, В - восточный, ЮВ - юго-восточный, Ю - южный, ЮЗ - юго-западный, З - западный, СЗ - северо-западный.
Видимость - горизонтальная дальность видимости в метрах или километрах. При видимости от 1 до 10 км при отсутствии осадков обычно наблюдается дымка, при ухудшении видимости до 1 км и менее - туман. В сухую погоду видимость может ухудшаться дымом, пылью или мглою.
Явления - указаны атмосферные явления, наблюдавшиеся в срок или в последний час перед сроком; фигурными скобками обозначены явления, наблюдавшиеся между сроками (за 1-3 часа до срока); квадратными скобками обозначены град или гололедные отложения с указанием их диаметра в мм.
Облачность - указаны через наклонную черту общая и нижняя облачность в баллах и высота нижней границы облаков в метрах; квадратными скобками обозначены формы облаков: Ci - перистые, Cs - перисто-слоистые, Cc - перисто-кучевые, Ac - высококучевые, As - высокослоистые, Sc - слоисто-кучевые, Ns - слоисто-дождевые, Cu - кучевые, Cb - кучево-дождевые. Подробнее классификацию облаков см. в Атласе облаков (PDF).
T - Температура воздуха - температура, измеренная на высоте 2 м над землей.
Td - Температура точки росы - температура, при понижении до которой содержащийся в воздухе водяной пар достигнет насыщения.
f - Относительная влажность воздуха - влажноcть воздуха, измеренная на высоте 2 м над землей.
Te - Эффективная температура - температура, которую ощущает одетый по сезону человек в тени. Характеристика душности погоды. При расчете учитывается влияние влажности воздуха и скорости ветра на теплоощущения человека.
Tes - Эффективная температура на солнце - температура, которую ощущает человек, с поправкой на солнечный нагрев. Характеристика знойности погоды. Зависит от высоты солнца над горизонтом, облачности и скорости ветра. Ночью, в пасмурную погоду, а также при ветре 12 м/с и более поправка равна нулю.
P - Атмосферное давление - приведенное к уровню моря атмосферное давление.
Po - Атмосферное давление - измеренное на уровне метеостанции атмосферное давление.
Tmin - Минимальная температура - минимум температуры воздуха на высоте 2 м над землей.
Tmax - Максимальная температура - максимум температуры воздуха на высоте 2 м над землей.
R - Количество осадков - Количество выпавших осадков за период времени, мм. При наведении курсора мыши на число - период времени, за который выпало указанное количество осадков.
R24 - Количество осадков - Количество выпавших осадков за 24 часа, мм.
S - Снежный покров - Высота снежного покрова, см. При наведении курсора мыши на число - состояние снежного покрова и степень покрытия местности в баллах.